Welcome to the New NWS' Forecast!
Most changes are behind the scenes, but click here for differences you might notice.

Regional Weather Roundup (RWR)

Issued by Binghamton, NY (BGM)

                            
653 
ASUS41 KBGM 201210
RWRBGM

REGIONAL WEATHER ROUNDUP
NATIONAL WEATHER SERVICE BINGHAMTON NY
800 AM EDT MON AUG 20 2018

Note: "fair" indicates few or no clouds below 12,000 feet with no
significant weather and/or obstructions to visibility.

* = Station(s) that does not report precipitation, such as rain, 
snow, etc, also no thunder or fog.

NYZ009-015>018-022>025-036-037-044>046-055>057-062-201300
...Central New York...
  
CITY           SKY/WX    TMP DP  RH WIND       PRES   REMARKS
Binghamton     FAIR      61  57  87 SE6       30.17R                  
Cortland       FAIR      61  61 100 CALM      30.17S                  
Dansville      CLOUDY    65  62  90 E3        30.13S                  
Elmira         FAIR      63  60  90 CALM      30.15R                  
Seneca Falls   MOSUNNY   64  61  88 SE7       30.15R                  
Ithaca         FAIR      63  59  87 E5        30.17R                  
Hamilton       SUNNY     61  59  94 CALM      30.18S                  
Hornell        CLOUDY    64  63  94 S3        30.17S                  
Monticello     FAIR      59  57  93 NE5       30.19S                  
Oneonta        SUNNY     59  55  88 CALM      30.20S                  
Penn Yan       FAIR      65  62  90 CALM      30.15R                  
Rome           FAIR      62  59  90 E6        30.19S                  
Sidney         CLOUDY    59  59 100 NE3       30.18S FOG              
Syracuse       PTSUNNY   64  63  96 E3        30.15R                  
$$
 
PAZ038>040-043-044-047-048-072-201300
...Northeast Pennsylvania...
  
CITY           SKY/WX    TMP DP  RH WIND       PRES   REMARKS
Hazleton       FAIR      63  59  88 MISG      30.18S                  
Scranton       FAIR      64  58  80 NE6       30.16R                  
$$
&&
KEY
WCI = Wind Chill Index
VSB = Visibility
HX  = Heat Index
$$